Weather History for Cartersville, GA

Change the Weather History Date:

Saturday, April 27, 2013

  Actual Average Record
Temperature  
Mean Temperature 64 °F 62 °F  
Max Temperature 70 °F 75 °F 84 °F (2011)
Min Temperature 57 °F 49 °F 37 °F (2001)
Degree Days  
Heating Degree Days 1 4  
Month to date heating degree days 182 186  
Since 1 July heating degree days 210 3214  
Cooling Degree Days 0 1  
Month to date cooling degree days 26 16  
Year to date cooling degree days 26 20  
Growing Degree Days 14 (Base 50)    
Moisture  
Dew Point 53 °F    
Average Humidity 67    
Maximum Humidity 86    
Minimum Humidity 48    
Precipitation  
Precipitation 0.35 in 0.15 in 1.75 in (1973)
Month to date precipitation 2.90 3.49  
Year to date precipitation 3.48 17.71  
Snow  
Snow 0.00 in - - ()
Month to date snowfall 0.0  
Since 1 July snowfall 0.0  
Snow Depth 0.00 in    
Sea Level Pressure  
Sea Level Pressure 30.21 in    
Wind  
Wind Speed 7 mph (East)    
Max Wind Speed 13 mph    
Max Gust Speed 22 mph    
Visibility 9 miles    
Events Rain , Thunderstorm    
T = Trace of Precipitation, MM = Missing Value Source: NWS Daily Summary

Daily Weather History Graph

Daily Weather History Graph

Search for Another Location

Airport:

Trip Planner

Search our weather history database for the weather conditions in past years. The results will help you decide how hot, cold, wet, or windy it might be!

Date:

Astronomy

Apr. 27, 2013 Rise Set
Actual Time 6:54 AM EDT 8:20 PM EDT
Civil Twilight 6:27 AM EDT 8:46 PM EDT
Nautical Twilight 5:55 AM EDT 9:18 PM EDT
Astronomical Twilight 5:22 AM EDT 9:52 PM EDT
Moon 10:44 PM EDT 8:15 AM EDT
Length of Visible Light 14h 19m
Length of Day
13h 26m
Waning Gibbous, 95% of the Moon is Illuminated
Apr 27
Waning Gibbous
May 2
Last Quarter
May 9
New
May 18
First Quarter
May 25
Full

Hourly Weather History & Observations

Time (EDT) Temp. Dew Point Humidity Pressure Visibility Wind Dir Wind Speed Gust Speed Precip Events Conditions
12:53 AM 64.0 °F 45.0 °F 50% 30.27 in 10.0 mi Calm Calm - 0.00 in   Overcast
1:53 AM 63.0 °F 46.0 °F 54% 30.28 in 10.0 mi East 4.6 mph - N/A   Overcast
2:53 AM 62.1 °F 46.0 °F 56% 30.29 in 10.0 mi NE 5.8 mph - N/A   Overcast
3:53 AM 57.0 °F 50.0 °F 77% 30.26 in 10.0 mi East 4.6 mph - 0.00 in   Mostly Cloudy
4:53 AM 57.9 °F 51.1 °F 78% 30.29 in 10.0 mi NE 4.6 mph - N/A   Overcast
5:53 AM 57.9 °F 51.1 °F 78% 30.27 in 10.0 mi ENE 5.8 mph - N/A   Overcast
6:53 AM 57.0 °F 52.0 °F 83% 30.25 in 10.0 mi Variable 4.6 mph - N/A   Overcast
7:53 AM 57.0 °F 53.1 °F 87% 30.29 in 10.0 mi Variable 6.9 mph - N/A   Mostly Cloudy
8:53 AM 57.9 °F 54.0 °F 87% 30.27 in 10.0 mi ESE 9.2 mph - N/A   Mostly Cloudy
9:53 AM 60.1 °F 53.1 °F 78% 30.26 in 10.0 mi SE 8.1 mph - N/A   Overcast
10:53 AM 63.0 °F 52.0 °F 67% 30.24 in 10.0 mi ESE 10.4 mph 18.4 mph N/A   Mostly Cloudy
11:53 AM 64.9 °F 53.1 °F 65% 30.25 in 10.0 mi East 4.6 mph - N/A   Overcast
12:53 PM 68.0 °F 53.1 °F 59% 30.22 in 10.0 mi South 9.2 mph 17.3 mph N/A   Mostly Cloudy
1:53 PM 69.1 °F 52.0 °F 54% 30.21 in 10.0 mi SE 5.8 mph - N/A   Overcast
2:53 PM 69.1 °F 53.1 °F 57% 30.20 in 10.0 mi ENE 5.8 mph - N/A   Overcast
3:53 PM 69.1 °F 52.0 °F 54% 30.18 in 10.0 mi East 5.8 mph - N/A   Overcast
4:53 PM 70.0 °F 54.0 °F 57% 30.15 in 10.0 mi East 5.8 mph - N/A   Mostly Cloudy
5:53 PM 68.0 °F 54.0 °F 61% 30.14 in 10.0 mi ENE 8.1 mph - N/A   Overcast
6:53 PM 68.0 °F 55.0 °F 63% 30.12 in 10.0 mi East 6.9 mph - N/A   Mostly Cloudy
7:53 PM 66.0 °F 55.0 °F 68% 30.12 in 10.0 mi ENE 8.1 mph 18.4 mph N/A   Overcast
8:53 PM 63.0 °F 54.0 °F 72% 30.12 in 10.0 mi East 11.5 mph 19.6 mph N/A   Overcast
9:53 PM 60.1 °F 55.0 °F 83% 30.13 in 6.0 mi East 8.1 mph - 0.03 in Rain Rain
10:53 PM 57.9 °F 57.0 °F 97% 30.12 in 10.0 mi East 6.9 mph 16.1 mph 0.01 in   Overcast
11:13 PM 57.2 °F 57.2 °F 100% 30.14 in 10.0 mi East 6.9 mph 20.7 mph 0.02 in Rain , Thunderstorm Light Rain
11:33 PM 57.2 °F 57.2 °F 100% 30.21 in 9.0 mi Variable 5.8 mph - 0.03 in Thunderstorm Overcast
11:41 PM 57.2 °F 57.2 °F 100% 30.20 in 1.8 mi Variable 3.5 mph - 0.13 in Rain , Thunderstorm Heavy Thunderstorms and Rain
11:47 PM 57.2 °F 57.2 °F 100% 30.20 in 2.0 mi North 9.2 mph - 0.17 in Rain , Thunderstorm Heavy Thunderstorms and Rain
11:53 PM 57.9 °F 57.0 °F 97% 30.17 in 3.0 mi North 9.2 mph - 0.19 in Rain , Thunderstorm Thunderstorms and Rain